Brownsville, TX

12:20 PM CDT on May 27, 2017 (GMT -0500)
Brownsville-South Padre I International

Weather History for KBRO - September, 2013

Change the Weather History Date:

Saturday, September 21, 2013

  Actual Average Record
Temperature  
Mean Temperature 78 °F 81 °F  
Max Temperature 81 °F 90 °F 102 °F (1947)
Min Temperature 74 °F 72 °F 59 °F (1983)
Degree Days  
Heating Degree Days 0 0  
Month to date heating degree days 0 0  
Since 1 July heating degree days 0 0  
Cooling Degree Days 13 16  
Month to date cooling degree days 378 369  
Year to date cooling degree days 3411 3276  
Growing Degree Days 27 (Base 50)    
Moisture  
Dew Point 75 °F    
Average Humidity 91    
Maximum Humidity 100    
Minimum Humidity 82    
Precipitation  
Precipitation 0.02 in 0.21 in 10.32 in (1886)
Month to date precipitation 11.56 4.13  
Year to date precipitation 21.61 18.94  
Sea Level Pressure  
Sea Level Pressure 29.73 in    
Wind  
Wind Speed 12 mph (NNW)    
Max Wind Speed 23 mph    
Max Gust Speed 30 mph    
Visibility 10 miles    
Events Rain    
T = Trace of Precipitation, MM = Missing Value Source: NWS Daily Summary

Daily Weather History Graph

Daily Weather History Graph

Search for Another Location

Airport or City:

Trip Planner

Search our weather history database for the weather conditions in past years. The results will help you decide how hot, cold, wet, or windy it might be!

Date:

Astronomy

Sep. 21, 2013 Rise Set
Actual Time 7:18 AM CDT 7:26 PM CDT
Civil Twilight 6:55 AM CDT 7:49 PM CDT
Nautical Twilight 6:28 AM CDT 8:16 PM CDT
Astronomical Twilight 6:01 AM CDT 8:43 PM CDT
Moon 8:58 PM CDT (9/21) 9:20 AM CDT (9/21)
Length of Visible Light 12h 54m
Length of Day
12h 08m
Waning Gibbous, 94% of the Moon is Illuminated
Sep 21
Waning Gibbous
Sep 26
Last Quarter
Oct 4
New
Oct 11
First Quarter
Oct 18
Full

Hourly Weather History & Observations

Time (CDT) Temp. Heat Index Dew Point Humidity Pressure Visibility Wind Dir Wind Speed Gust Speed Precip Events Conditions
12:38 AM 80.6 °F 88.1 °F 78.8 °F 94% 29.69 in 10.0 mi Calm Calm - 0.00 in Rain Light Rain
12:53 AM 81.0 °F 89.2 °F 79.0 °F 94% 29.69 in 10.0 mi Calm Calm - 0.00 in   Mostly Cloudy
1:08 AM 80.6 °F 88.1 °F 78.8 °F 94% 29.70 in 10.0 mi Calm Calm - N/A   Overcast
1:53 AM 81.0 °F 89.9 °F 80.1 °F 97% 29.69 in 10.0 mi NNW 4.6 mph - N/A   Overcast
2:53 AM 80.1 °F 86.7 °F 79.0 °F 96% 29.67 in 10.0 mi NW 5.8 mph - 0.00 in Rain Light Rain
3:13 AM 80.6 °F 88.1 °F 78.8 °F 94% 29.67 in 10.0 mi North 4.6 mph - N/A   Mostly Cloudy
3:34 AM 78.8 °F - 78.8 °F 100% 29.68 in 10.0 mi North 6.9 mph - N/A   Mostly Cloudy
3:53 AM 80.1 °F 86.7 °F 79.0 °F 96% 29.69 in 10.0 mi North 5.8 mph - N/A   Overcast
4:06 AM 80.6 °F 88.1 °F 78.8 °F 94% 29.69 in 9.0 mi NNW 5.8 mph - 0.00 in Rain Light Rain
4:23 AM 80.6 °F 88.1 °F 78.8 °F 94% 29.68 in 10.0 mi NW 5.8 mph - 0.01 in Rain Light Rain
4:46 AM 78.8 °F - 78.8 °F 100% 29.67 in 10.0 mi NNW 5.8 mph - 0.02 in Rain Light Rain
4:53 AM 79.0 °F - 79.0 °F 100% 29.67 in 10.0 mi NW 6.9 mph - 0.02 in Rain Light Rain
5:01 AM 78.8 °F - 78.8 °F 100% 29.67 in 10.0 mi NNW 10.4 mph - 0.00 in   Overcast
5:37 AM 78.8 °F - 78.8 °F 100% 29.69 in 10.0 mi NNW 9.2 mph - 0.00 in   Overcast
5:43 AM 78.8 °F - 78.8 °F 100% 29.69 in 10.0 mi NNW 9.2 mph - 0.00 in   Overcast
5:53 AM 78.1 °F - 77.0 °F 96% 29.69 in 10.0 mi NW 12.7 mph 18.4 mph 0.00 in   Overcast
6:30 AM 77.0 °F - 77.0 °F 100% 29.70 in 10.0 mi NW 9.2 mph - 0.00 in   Overcast
6:43 AM 77.0 °F - 75.2 °F 94% 29.70 in 10.0 mi NW 9.2 mph 19.6 mph 0.00 in   Overcast
6:53 AM 77.0 °F - 75.9 °F 96% 29.70 in 10.0 mi NW 11.5 mph - 0.00 in Rain Light Rain
7:00 AM 77.0 °F - 75.2 °F 94% 29.70 in 10.0 mi NW 17.3 mph 24.2 mph 0.00 in   Overcast
7:53 AM 77.0 °F - 75.9 °F 96% 29.70 in 10.0 mi NNW 15.0 mph 24.2 mph 0.00 in   Overcast
8:53 AM 75.9 °F - 75.0 °F 97% 29.74 in 10.0 mi NW 13.8 mph 21.9 mph 0.00 in   Overcast
9:53 AM 75.0 °F - 75.0 °F 100% 29.76 in 10.0 mi NNW 13.8 mph 21.9 mph 0.00 in   Overcast
10:53 AM 77.0 °F - 73.9 °F 90% 29.76 in 10.0 mi NNW 19.6 mph 25.3 mph N/A   Overcast
11:53 AM 77.0 °F - 73.0 °F 88% 29.76 in 10.0 mi NNW 15.0 mph 24.2 mph N/A   Overcast
12:53 PM 78.1 °F - 73.0 °F 84% 29.77 in 10.0 mi NNW 12.7 mph 25.3 mph N/A   Overcast
1:53 PM 78.1 °F - 73.0 °F 84% 29.76 in 10.0 mi NNW 13.8 mph 26.5 mph N/A   Overcast
2:53 PM 78.1 °F - 73.0 °F 84% 29.75 in 10.0 mi NNW 12.7 mph 21.9 mph N/A   Overcast
3:28 PM 77.0 °F - 73.4 °F 89% 29.75 in 10.0 mi NNW 18.4 mph 24.2 mph 0.00 in Rain Light Rain
3:36 PM 77.0 °F - 73.4 °F 89% 29.75 in 10.0 mi NNW 12.7 mph 24.2 mph 0.00 in   Overcast
3:53 PM 77.0 °F - 73.0 °F 88% 29.74 in 10.0 mi NNW 13.8 mph 25.3 mph 0.00 in   Overcast
4:25 PM 77.0 °F - 73.4 °F 89% 29.75 in 10.0 mi NNW 17.3 mph 26.5 mph N/A   Overcast
4:53 PM 77.0 °F - 73.0 °F 88% 29.75 in 10.0 mi NNW 16.1 mph 26.5 mph N/A   Overcast
5:50 PM 75.2 °F - 71.6 °F 89% 29.75 in 10.0 mi NW 16.1 mph 21.9 mph 0.00 in   Overcast
5:53 PM 75.9 °F - 72.0 °F 87% 29.75 in 10.0 mi NNW 15.0 mph 23.0 mph 0.00 in   Overcast
6:00 PM 75.2 °F - 71.6 °F 89% 29.75 in 10.0 mi NNW 12.7 mph 26.5 mph N/A   Overcast
6:25 PM 75.2 °F - 71.6 °F 89% 29.76 in 10.0 mi NNW 13.8 mph - N/A   Overcast
6:36 PM 75.2 °F - 71.6 °F 89% 29.76 in 10.0 mi NNW 13.8 mph 21.9 mph 0.00 in Rain Light Rain
6:53 PM 75.0 °F - 72.0 °F 90% 29.75 in 10.0 mi NNW 15.0 mph 26.5 mph 0.00 in   Overcast
7:53 PM 75.0 °F - 71.1 °F 87% 29.76 in 10.0 mi NNW 12.7 mph - N/A   Overcast
8:53 PM 75.0 °F - 70.0 °F 84% 29.77 in 10.0 mi NNW 10.4 mph 18.4 mph N/A   Overcast
9:53 PM 75.9 °F - 70.0 °F 82% 29.78 in 10.0 mi NNW 9.2 mph - N/A   Overcast
10:53 PM 75.9 °F - 69.1 °F 79% 29.78 in 10.0 mi NNW 9.2 mph - N/A   Overcast
11:53 PM 75.0 °F - 69.1 °F 82% 29.79 in 10.0 mi NNW 6.9 mph - N/A   Overcast